{"data":{"norad_id":48298,"epoch":"2026-09-19T23:18:37.003968Z","epoch_age_seconds":79414,"freshness":"FRESH","line1":"1 48298U 21036Y   26262.97126162  .00044389  00000+0  97292-3 0  9994","line2":"2 48298  53.1521 245.3270 0001761  54.8909 305.2262 15.43674235298260","mean_motion":15.43674235,"eccentricity":0.0001761,"inclination_deg":53.1521,"raan_deg":245.327,"arg_perigee_deg":54.8909,"mean_anomaly_deg":305.2262,"bstar":0.00097292,"rev_number":29826,"period_min":93.283930466068,"perigee_km":434.0765158416,"apogee_km":436.47620002626,"semimajor_km":6813.4133579339,"source":"CELESTRAK","updated_at":"2026-09-20T09:00:38.931250Z"}}